TimeMST,TemperatureF,Dew PointF,Humidity,Sea Level PressureIn,VisibilityMPH,Wind Direction,Wind SpeedMPH,Gust SpeedMPH,PrecipitationIn,Events,Conditions,WindDirDegrees,DateUTC
12:53 AM,26.1,19.0,75,29.82,8.0,ENE,9.2,-,0.00,Snow,Light Snow,70,2013-03-04 07:53:00
1:53 AM,25.0,19.9,81,29.83,10.0,ENE,4.6,-,0.00,,Overcast,60,2013-03-04 08:53:00
2:10 AM,24.8,19.4,80,29.82,2.5,ENE,4.6,-,0.00,Snow,Light Snow,60,2013-03-04 09:10:00
2:37 AM,24.8,19.4,80,29.82,4.0,Calm,Calm,-,0.00,Snow,Light Snow,0,2013-03-04 09:37:00
2:53 AM,24.1,21.0,88,29.83,7.0,Calm,Calm,-,0.00,,Overcast,0,2013-03-04 09:53:00
3:53 AM,23.0,21.0,92,29.83,-9999.0,WSW,3.5,-,N/A,,Overcast,240,2013-03-04 10:53:00
4:53 AM,24.1,17.1,75,29.84,10.0,WNW,6.9,-,N/A,,Overcast,300,2013-03-04 11:53:00
5:53 AM,24.1,16.0,71,29.88,10.0,NW,13.8,-,N/A,,Overcast,310,2013-03-04 12:53:00
6:53 AM,21.9,10.9,63,29.93,10.0,WNW,13.8,20.7,0.00,,Overcast,300,2013-03-04 13:53:00
7:53 AM,23.0,8.1,53,29.95,10.0,WNW,17.3,23.0,N/A,,Mostly Cloudy,290,2013-03-04 14:53:00
8:53 AM,24.1,7.0,48,29.99,10.0,WNW,21.9,33.4,N/A,,Mostly Cloudy,300,2013-03-04 15:53:00
9:53 AM,26.1,7.0,44,30.02,10.0,WNW,26.5,34.5,N/A,,Partly Cloudy,300,2013-03-04 16:53:00
10:53 AM,28.9,3.0,33,30.01,10.0,NW,29.9,40.3,N/A,,Clear,310,2013-03-04 17:53:00
11:53 AM,30.0,1.9,30,30.04,10.0,NW,31.1,47.2,N/A,,Clear,310,2013-03-04 18:53:00
12:53 PM,30.9,3.0,31,30.06,10.0,NW,28.8,36.8,N/A,,Clear,310,2013-03-04 19:53:00
1:53 PM,28.0,-2.0,27,30.10,10.0,NW,32.2,42.6,N/A,,Clear,320,2013-03-04 20:53:00
2:53 PM,28.0,1.0,31,30.16,10.0,NNW,29.9,36.8,N/A,,Clear,330,2013-03-04 21:53:00
3:53 PM,27.0,1.9,34,30.19,10.0,NNW,25.3,32.2,N/A,,Clear,330,2013-03-04 22:53:00
4:53 PM,26.1,1.0,34,30.22,10.0,NNW,23.0,29.9,N/A,,Clear,340,2013-03-04 23:53:00
5:53 PM,23.0,1.9,40,30.28,-9999.0,WNW,16.1,-,N/A,,Clear,300,2013-03-05 00:53:00
6:53 PM,19.9,3.0,48,30.33,10.0,NNW,11.5,-,N/A,,Clear,340,2013-03-05 01:53:00
7:53 PM,16.0,7.0,68,30.39,10.0,NE,8.1,-,N/A,,Clear,50,2013-03-05 02:53:00
8:53 PM,14.0,7.0,74,30.40,10.0,ENE,3.5,-,N/A,,Clear,70,2013-03-05 03:53:00
9:53 PM,10.9,5.0,77,30.40,-9999.0,Calm,Calm,-,N/A,,Clear,0,2013-03-05 04:53:00
10:53 PM,7.0,1.0,77,30.40,-9999.0,Calm,Calm,-,N/A,,Clear,0,2013-03-05 05:53:00